Volver al catálogo

SL-16 DEB

ActivoLEO
NORAD 39714·DEBRIS·🇷🇺 Russia

Lanzado Dec 25, 1992 desde Baikonur Cosmodrome

Loading…

Próximos Pases (próximas 24 horas)

TLE

ActualizadoSource: Space-Track

Época: Sep 14, 2026, 05:57 UTC

1 39714U 92093KE  26257.24794863  .00000399  00000-0  18225-3 0  9994
2 39714  71.0834 195.1452 0092835   3.0603 357.1073 14.25055997665296

Sigue SL-16 DEB en tiempo real con AllMySat

Download on the App Store